Location: St. Louis
(38.6270°N, 90.1994°W)
Time: 05:57:08
(UTC-06:00)

Tiros 1 - Pass Details

Date: 03 December 2021
Orbit: 630 x 663 km, 48.4° (Epoch: 20 January)

Event Time Altitude Azimuth Distance (km) Brightness Sun altitude
Rises 17:08:36 0° 203° (SSW) 2,900 11.3 -5.9°
Reaches altitude 10° 17:11:12 10° 191° (S) 1,999 10.2 -6.4°
Maximum altitude 17:15:00 26° 135° (SE) 1,249 8.4 -7.1°
Drops below altitude 10° 17:18:51 10° 79° (ENE) 2,022 9.0 -7.8°
Enters shadow 17:19:01 - 77° (ENE) 2,080 9.1 -7.8°
